Regional Weather Roundup
Issued by NWS

Home | Current Version | Previous Version | Graphics & Text | Print | Product List | Glossary On
Versions: 1 2 3 4 5 6 7 8 9 10 11 12 13 14 15 16 17 18 19 20 21 22 23 24 25 26 27
000
ASUS45 KCYS 211810
RWRWY

WYOMING REGIONAL WEATHER ROUNDUP
NATIONAL WEATHER SERVICE CHEYENNE WY
1200 PM MDT MON AUG 21 2017

NOTE:  "FAIR" INDICATES FEW OR NO CLOUDS BELOW 12,000 FEET
WITH NO SIGNIFICANT WEATHER AND/OR OBSTRUCTIONS TO VISIBILITY.

WYZ001-211900-
YELLOWSTONE NATIONAL PARK

CITY           SKY/WX    TMP DP  RH WIND       PRES   REMARKS
LK YELLOWSTONE   N/A     52  44  74 CALM      30.38F
6HR MIN TEMP:  36; 6HR MAX TEMP:  57;

W YELLOWSTONE  NOT AVBL

$$
WYZ002>013-054>058-071-098>099-211900-
NORTHERN WYOMING

CITY           SKY/WX    TMP DP  RH WIND       PRES   REMARKS
JACKSON        FAIR      56  36  47 CALM      30.30S
CODY           FAIR      63  37  38 NE9       30.23S
GREYBULL       FAIR      71  36  27 CALM      30.14F
6HR MIN TEMP:  54; 6HR MAX TEMP:  73;

WORLAND        FAIR      65  40  39 E5        30.15F
6HR MIN TEMP:  47; 6HR MAX TEMP:  73;

SHERIDAN       FAIR      69  36  29 CALM      30.19S
6HR MIN TEMP:  50; 6HR MAX TEMP:  74;

BUFFALO        FAIR      65  33  30 N6        30.24S
6HR MIN TEMP:  56; 6HR MAX TEMP:  72;

GILLETTE       FAIR      65  36  34 N8        30.18F
6HR MIN TEMP:  52; 6HR MAX TEMP:  72;

HULETT         FAIR      66  37  34 NE3       30.19S
NEWCASTLE      FAIR      70  34  26 N8        30.13S

$$
WYZ014>020-022>026-101>103-211900-
CENTRAL WYOMING

CITY           SKY/WX    TMP DP  RH WIND       PRES   REMARKS
BIG PINEY      FAIR      62  40  44 SW5       30.32S
6HR MIN TEMP:  39; 6HR MAX TEMP:  69;

PINEDALE       FAIR      63  32  31 CALM      30.32F
DUBOIS         FAIR      59  30  33 S5        30.30F
LANDER           N/A    N/A N/A N/A MISG      30.21S
RIVERTON       FAIR      67  39  35 E3        30.21F
6HR MIN TEMP:  52; 6HR MAX TEMP:  72;

CASPER         FAIR      66  36  32 NE7       30.22S
6HR MIN TEMP:  47; 6HR MAX TEMP:  75;

DOUGLAS        FAIR      67  38  34 N7        30.20S
6HR MIN TEMP:  57; 6HR MAX TEMP:  77;


$$
WYZ021-027>030-104>119-211900-
SOUTHERN WYOMING

CITY           SKY/WX    TMP DP  RH WIND       PRES   REMARKS
EVANSTON       FAIR      70  41  34 N6        30.32S
6HR MIN TEMP:  54; 6HR MAX TEMP:  75;

KEMMERER         N/A     64  32  29 W6        30.33F
FORT BRIDGER   CLEAR     72  34  25 NE5       30.34F
ROCK SPRINGS   FAIR      67  38  34 N5        30.29F
6HR MIN TEMP:  52; 6HR MAX TEMP:  73;

RAWLINS        FAIR      69  33  26 MISG      30.29S
6HR MIN TEMP:  46; 6HR MAX TEMP:  76;

SARATOGA       FAIR      66  41  39 E7        30.31S
LARAMIE        FAIR      68  36  30 N12       30.30S
6HR MIN TEMP:  43; 6HR MAX TEMP:  74;

CHEYENNE       FAIR      70  34  26 N16G24    30.22R
6HR MIN TEMP:  54; 6HR MAX TEMP:  77;

TORRINGTON     FAIR      74  54  49 N12       30.10S
6HR MIN TEMP:  57; 6HR MAX TEMP:  80;

PINE BLUFFS    FAIR      72  39  30 N14       30.16S

$$




USA.gov is the U.S. government's official web portal to all federal, state and local government web resources and services.